Simultaneous Nadir Overpasses (SNOs) Predictions

Prediction of SNOs between GOES-16 and AQUA Satellite Orbit:

Table of predicted SNOs for the next 14.0 days since TLE Epoch: 10/17/2025
Index Date Time (GOES-16) GOES-16 Lat,Lon AQUA Lat,Lon Distance(km) Time Diff (sec)
1 10/18/2025 09:37:11 -0.02,-104.70 -0.91,-100.48 479.21 80
2 10/18/2025 21:56:20 0.02,-104.68 -0.10,-105.11 49.01 80
3 10/21/2025 09:54:27 -0.01,-104.71 -0.04,-104.58 14.30 80
4 10/23/2025 21:55:21 -0.01,-104.68 0.15,-104.08 68.85 80
5 10/24/2025 10:14:19 0.01,-104.71 0.89,-108.66 450.01 80
6 10/26/2025 09:50:44 0.01,-104.71 -0.26,-103.54 132.91 80
7 10/26/2025 22:09:52 -0.02,-104.68 -0.74,-108.16 396.15 80
8 10/28/2025 21:51:35 -0.02,-104.67 0.35,-103.03 187.45 80
9 10/29/2025 10:10:34 0.02,-104.70 0.66,-107.61 330.85 80
10 10/31/2025 09:46:56 0.02,-104.70 -0.43,-102.47 252.94 80
